Location: Carri�res
(48.9069°N, 2.1792°E)
Time: 23:05:17
(UTC+00:00)

Cosmos 1844 Rocket - Visible Passes

Search period start: 05 May 2021 00:00
Search period end: 15 May 2021 00:00
Orbit: 825 x 844 km, 71.0° (Epoch: 05 May)

Date Brightness Start Highest point End Pass type
(mag) Time Alt. Az. Time Alt. Az. Time Alt. Az.
05 May 5.7 00:14:41 10° NW 00:15:52 11° NNW 00:17:04 10° NNW visible
05 May 5.6 03:46:43 10° N 03:49:39 14° NNE 03:52:36 10° ENE visible
05 May 3.0 20:23:33 10° S 20:28:48 45° ESE 20:34:06 10° NE visible
05 May 4.2 22:07:43 10° WSW 22:12:49 36° NW 22:17:59 10° NNE visible
05 May 5.7 23:56:54 10° NW 23:58:31 11° NNW 00:00:08 10° N visible
06 May 5.7 03:29:35 10° N 03:32:18 13° NNE 03:35:02 10° ENE visible
06 May 3.1 20:06:26 10° S 20:11:36 41° ESE 20:16:49 10° NE visible
06 May 4.1 21:50:22 10° WSW 21:55:33 38° NW 22:00:46 10° NNE visible
06 May 5.7 23:39:13 10° NW 23:41:09 12° NNW 23:43:06 10° N visible
07 May 5.8 03:12:29 10° N 03:14:57 13° NNE 03:17:27 10° NE visible
07 May 3.2 19:49:19 10° S 19:54:25 38° ESE 19:59:32 10° NE visible
07 May 4.0 21:33:02 10° WSW 21:38:16 41° NW 21:43:34 10° NNE visible
07 May 5.7 23:21:34 10° NW 23:23:48 12° NNW 23:26:03 10° N visible
08 May 5.9 02:55:23 10° N 02:57:37 12° NNE 02:59:50 10° NE visible
08 May 3.9 21:15:41 10° SW 21:21:00 44° NW 21:26:22 10° NNE visible
08 May 5.7 23:03:57 10° NW 23:06:27 13° NNW 23:08:57 10° N visible
09 May 6.0 02:38:19 10° N 02:40:16 12° NNE 02:42:12 10° NE visible
09 May 3.8 20:58:22 10° SW 21:03:44 48° NW 21:09:09 10° NNE visible
09 May 5.7 22:46:22 10° WNW 22:49:06 14° NNW 22:51:51 10° N visible
10 May 6.1 02:21:18 10° N 02:22:54 11° NNE 02:24:31 10° NE visible
10 May 3.6 20:41:02 10° SW 20:46:27 51° NW 20:51:56 10° NNE visible
10 May 5.7 22:28:48 10° WNW 22:31:46 14° NNW 22:34:44 10° N visible
11 May 6.2 02:04:21 10° NNE 02:05:33 11° NNE 02:06:44 10° NE visible
11 May 3.5 20:23:44 10° SW 20:29:12 55° NW 20:34:43 10° NNE visible
11 May 5.7 22:11:15 10° WNW 22:14:25 15° NNW 22:17:35 10° N visible
12 May 6.3 01:47:38 10° NNE 01:48:10 10° NNE 01:48:43 10° NNE visible
12 May 4.9 03:29:02 10° NNW 03:34:02 31° NE 03:39:01 10° ESE visible
12 May 3.4 20:06:27 10° SW 20:11:56 60° WNW 20:17:30 10° NNE visible
12 May 5.8 21:53:43 10° WNW 21:57:05 16° NW 22:00:27 10° N visible
13 May 5.0 03:11:50 10° NNW 03:16:44 29° NE 03:21:38 10° ESE visible
13 May 5.8 21:36:13 10° WNW 21:39:45 17° NW 21:43:18 10° N visible
14 May 5.1 02:54:39 10° NNW 02:59:27 28° NE 03:04:14 10° ESE visible
14 May 5.8 21:18:42 10° WNW 21:22:24 18° NW 21:26:08 10° N visible
